Terminal Aerodrome Forecast
Issued by NWS

Home | Current Version | Previous Version | Text Only | Print | Product List | Glossary On
Versions: 1 2 3 4 5 6 7 8 9 10 11 12 13 14 15 16 17 18 19 20 21 22 23 24 25 26 27 28 29 30 31 32 33 34 35 36 37 38
544
FTUS43 KDVN 261903 AAA
TAFCID
TAF AMD
KCID 261903Z 2619/2718 31007KT 2SM -DZ BR OVC002
     FM262100 30008KT 3SM BR OVC005
     FM270400 33004KT 1SM BR OVC003
     FM271500 01007KT 3SM BR VCSH OVC008=

USA.gov is the U.S. government's official web portal to all federal, state and local government web resources and services.